SUCHAI

Last updated on Fri Oct 06 2023 01:03:38 GMT+0100 (British Summer Time)

1 42788U 17036Z 23278.59754884 .09414560 23442-5 12208-2 0 9992 2 42788 97.0957 322.5026 0009064 262.4914 97.5354 16.35699058350659
UTC large
Height (km)
Speed (km/s)
/
Latitude / Longitude
Inclination (degrees)
Orbital Period (minutes)
Azimuth
Elevation
Range (km)
Doppler Factor

Next 0 passes for location: London (51.5072 / 0.1276)

Sorry there are no passes over London.